QPF
0.00 0.00 0.00 0.00 0.00 0.00 0.00 0.00 0.00 0.00 0.00 0.00 0.00 0.00 0.00 0.00 0.00 0.00 0.00 0.00 0.00 0.00 0.00 0.00 0.00 0.00 0.00 0.00 0.00 0.00 0.00 0.00 0.00 0.00 0.00 0.00 0.00 0.00 0.00 0.00 0.00 0.00 0.00 0.00
0.00 0.00 0.00 0.00 0.00 0.00 0.00 0.00 0.00 0.00 0.00 0.00 0.00 0.00 0.00 0.00 0.00 0.00 0.00 0.00 0.00 0.00 0.00 0.00 0.00 0.00 0.00 0.00 0.00 0.00 0.00 0.00 0.00 0.00 0.00 0.00 0.00 0.00 0.00 0.00 0.00 0.00 0.00 0.00
0.00 0.00 0.00 0.00 0.00 0.00 0.00 0.00 0.00 0.00 0.00 0.00 0.00 0.00 0.00 0.00 0.00 0.00 0.00 0.00 0.00 0.00 0.00 0.00 0.00 0.00 0.00 0.00 0.00 0.00 0.00 0.00 0.00 0.00 0.00 0.00 0.00 0.00 0.00 0.00 0.00 0.00 0.00 0.00
0.00 0.00 0.00 0.00 0.00 0.00 0.00 0.00 0.00 0.00 0.00 0.00 0.00 0.00 0.00 0.00 0.00 0.00 0.00 0.00 0.00 0.00 0.00 0.00 0.00 0.00 0.00 0.00 0.00 0.00 0.00 0.00 0.00 0.00 0.00 0.00 0.00 0.00 0.00 0.00 0.00 0.00 0.00 0.00
0.00 0.00 0.00 0.00 0.00 0.00 0.00 0.00 0.00 0.00 0.00 0.00 0.00 0.00 0.00 0.00 0.00 0.00 0.00 0.00 0.00 0.00 0.00 0.00 0.00 0.00 0.00 0.00 0.00 0.00 0.00 0.00 0.00 0.00 0.00 0.00 0.00 0.00 0.00 0.00 0.00 0.00 0.00 0.00
0.00 0.00 0.00 0.00 0.00 0.00 0.00 0.00 0.00 0.00 0.00 0.00 0.00 0.00 0.00 0.00 0.00 0.00 0.00 0.00 0.00 0.00 0.00 0.00 0.00 0.00 0.00 0.00 0.00 0.00 0.00 0.00 0.00 0.00 0.00 0.00 0.00 0.00 0.00 0.00 0.00 0.00 0.00 0.00
0.00 0.00 0.00 0.00 0.00 0.00 0.00 0.00 0.00 0.00 0.00 0.00 0.00 0.00 0.00 0.00 0.00 0.00 0.00 0.00 0.00 0.00 0.00 0.00 0.00 0.00 0.00 0.00 0.00 0.00 0.00 0.00 0.00 0.00 0.00 0.00 0.00 0.00 0.00 0.00 0.00 0.00 0.00 0.00
0.00 0.00 0.00 0.00 0.00 0.00 0.00 0.00 0.00 0.00 0.00 0.00 0.00 0.00 0.00 0.00 0.00 0.00 0.00 0.00 0.00 0.00 0.00 0.00 0.00 0.00 0.00 0.00 0.00 0.00 0.00 0.00 0.00 0.00 0.00 0.00 0.00 0.00 0.00 0.00 0.00 0.00 0.00 0.00
0.00 0.00 0.00 0.00 0.00 0.00 0.00 0.00 0.00 0.00 0.00 0.00 0.00 0.00 0.00 0.00 0.00 0.00 0.00 0.00 0.00 0.00 0.00 0.00 0.00 0.00 0.00 0.00 0.00 0.00 0.00 0.00 0.00 0.00 0.00 0.00 0.00 0.00 0.00 0.00 0.00 0.00 0.00 0.00
0.00 0.00 0.00 0.00 0.00 0.00 0.00 0.00 0.00 0.00 0.00 0.00 0.00 0.00 0.00 0.00 0.00 0.00 0.00 0.00 0.00 0.00 0.00 0.00 0.00 0.00 0.00 0.00 0.00 0.00 0.00 0.00 0.00 0.00 0.00 0.00 0.00 0.00 0.00 0.00 0.00 0.00 0.00 0.00
0.00 0.00 0.00 0.00 0.00 0.00 0.00 0.00 0.00 0.00 0.00 0.00 0.00 0.00 0.00 0.00 0.00 0.00 0.00 0.00 0.00 0.00 0.00 0.00 0.00 0.00 0.00 0.00 0.00 0.00 0.00 0.00 0.00 0.00 0.00 0.00 0.00 0.00 0.00 0.00 0.00 0.00 0.00 0.00
0.00 0.00 0.00 0.00 0.00 0.00 0.00 0.00 0.00 0.00 0.00 0.00 0.00 0.00 0.00 0.00 0.00 0.00 0.00 0.00 0.00 0.00 0.00 0.00 0.00 0.00 0.00 0.00 0.00 0.00 0.00 0.00 0.00 0.00 0.00 0.00 0.00 0.00 0.00 0.00 0.00 0.00 0.00 0.00
0.00 0.00 0.00 0.00 0.00 0.00 0.00 0.00 0.00 0.00 0.00 0.00 0.00 0.00 0.00 0.00 0.00 0.00 0.00 0.00 0.00 0.00 0.00 0.00 0.00 0.00 0.00 0.00 0.00 0.00 0.00 0.00 0.00 0.00 0.00 0.00 0.00 0.00 0.00 0.00 0.00 0.00 0.00 0.00
0.00 0.00 0.00 0.00 0.00 0.00 0.00 0.00 0.00 0.00 0.00 0.00 0.00 0.00 0.00 0.00 0.00 0.00 0.00 0.00 0.00 0.00 0.00 0.00 0.00 0.00 0.00 0.00 0.00 0.00 0.00 0.00 0.00 0.00 0.00 0.00 0.00 0.00 0.00 0.00 0.00 0.00 0.00 0.00
0.00 0.00 0.00 0.00 0.00 0.00 0.00 0.00 0.00 0.00 0.00 0.00 0.00 0.00 0.00 0.00 0.00 0.00 0.00 0.00 0.00 0.00 0.00 0.00 0.00 0.00 0.00 0.00 0.00 0.00 0.00 0.00 0.00 0.00 0.00 0.00 0.00 0.00 0.00 0.00 0.00 0.00 0.00 0.00
0.00 0.00 0.00 0.00 0.00 0.00 0.00 0.00 0.00 0.00 0.00 0.00 0.00 0.00 0.00 0.00 0.00 0.00 0.00 0.00 0.00 0.00 0.00 0.00 0.00 0.00 0.00 0.00 0.00 0.00 0.00 0.00 0.00 0.00 0.00 0.00 0.00 0.00 0.00 0.00 0.00 0.00 0.00 0.00
0.00 0.00 0.00 0.00 0.00 0.00 0.00 0.00 0.00 0.00 0.00 0.00 0.00 0.00 0.00 0.00 0.00 0.00 0.00 0.00 0.00 0.01 0.02 0.00 0.00 0.00 0.00 0.00 0.00 0.00 0.00 0.00 0.00 0.00 0.00 0.00 0.00 0.00 0.00 0.00 0.00 0.00 0.00 0.00
0.00 0.00 0.00 0.00 0.00 0.00 0.00 0.00 0.00 0.00 0.00 0.00 0.00 0.00 0.00 0.00 0.00 0.00 0.00 0.00 0.00 0.00 0.00 0.00 0.00 0.00 0.00 0.00 0.00 0.00 0.00 0.00 0.00 0.00 0.00 0.00 0.00 0.00 0.00 0.00 0.00 0.00 0.00 0.00
0.00 0.00 0.00 0.00 0.00 0.00 0.00 0.00 0.00 0.00 0.00 0.00 0.00 0.00 0.00 0.00 0.00 0.00 0.00 0.00 0.01 0.00 0.00 0.00 0.00 0.00 0.00 0.00 0.00 0.00 0.00 0.00 0.00 0.00 0.00 0.00 0.00 0.00 0.00 0.00 0.00 0.00 0.00 0.00
0.00 0.00 0.00 0.00 0.00 0.00 0.00 0.00 0.00 0.00 0.00 0.00 0.00 0.00 0.00 0.00 0.00 0.00 0.00 0.00 0.00 0.00 0.00 0.00 0.00 0.00 0.00 0.00 0.00 0.00 0.00 0.00 0.00 0.00 0.00 0.00 0.00 0.00 0.00 0.00 0.00 0.00 0.00 0.00
0.00 0.00 0.00 0.00 0.00 0.00 0.00 0.00 0.00 0.00 0.00 0.00 0.00 0.00 0.00 0.00 0.00 0.00 0.00 0.00 0.00 0.00 0.00 0.00 0.00 0.00 0.00 0.00 0.00 0.00 0.00 0.00 0.00 0.00 0.00 0.00 0.00 0.00 0.00 0.00 0.00 0.00 0.00 0.00
0.00 0.00 0.00 0.00 0.00 0.00 0.00 0.00 0.00 0.00 0.00 0.00 0.00 0.00 0.00 0.00 0.00 0.00 0.00 0.00 0.00 0.00 0.00 0.00 0.00 0.00 0.00 0.00 0.00 0.00 0.00 0.00 0.00 0.00 0.00 0.00 0.00 0.00 0.00 0.00 0.00 0.00 0.00 0.00
0.00 0.00 0.00 0.00 0.00 0.00 0.00 0.00 0.00 0.00 0.00 0.00 0.00 0.00 0.00 0.00 0.00 0.00 0.00 0.00 0.00 0.00 0.00 0.00 0.00 0.00 0.00 0.00 0.00 0.00 0.00 0.00 0.00 0.00 0.00 0.00 0.00 0.00 0.00 0.00 0.00 0.00 0.00 0.00
0.00 0.00 0.00 0.00 0.00 0.00 0.00 0.00 0.00 0.00 0.00 0.00 0.00 0.00 0.00 0.00 0.00 0.00 0.00 0.00 0.00 0.00 0.00 0.00 0.00 0.00 0.00 0.00 0.00 0.00 0.00 0.00 0.00 0.00 0.01 0.00 0.00 0.00 0.00 0.00 0.00 0.00 0.00 0.00
0.00 0.00 0.00 0.00 0.00 0.00 0.00 0.00 0.00 0.00 0.00 0.00 0.00 0.00 0.00 0.00 0.00 0.00 0.00 0.00 0.00 0.00 0.00 0.00 0.00 0.00 0.00 0.00 0.00 0.00 0.00 0.01 0.01 0.01 0.01 0.01 0.00 0.00 0.00 0.00 0.00 0.00 0.00 0.00
0.00 0.00 0.00 0.00 0.00 0.00 0.00 0.00 0.01 0.01 0.00 0.00 0.00 0.00 0.00 0.00 0.00 0.00 0.00 0.00 0.00 0.00 0.00 0.00 0.00 0.00 0.00 0.00 0.00 0.00 0.00 0.00 0.00 0.01 0.01 0.01 0.01 0.01 0.01 0.01 0.00 0.00 0.00 0.00
0.00 0.00 0.00 0.00 0.00 0.00 0.00 0.00 0.01 0.02 0.00 0.00 0.00 0.00 0.00 0.00 0.00 0.00 0.00 0.00 0.00 0.00 0.00 0.00 0.00 0.00 0.00 0.00 0.00 0.00 0.00 0.00 0.00 0.00 0.00 0.00 0.01 0.01 0.02 0.02 0.00 0.00 0.00 0.00
MSLP
1017.60 1016.69 1016.05 1015.29 1014.33 1013.25 1012.65 1012.65 1012.11 1011.53 1011.01 1012.05 1013.90 1014.46 1014.90 1015.09 1014.51 1014.34 1014.09 1014.27 1014.41 1014.61 1014.70 1014.86 1014.95 1015.33 1015.56 1015.28 1014.57 1014.17 1014.17 1013.54 1013.57 1014.03 1014.37 1014.32 1013.45 1013.03 1012.30 1010.79 1011.13 1011.18 1011.01 1013.85
1017.88 1016.83 1016.07 1015.42 1014.66 1013.80 1013.39 1013.57 1013.31 1012.20 1011.51 1013.41 1014.66 1015.37 1015.50 1015.78 1015.30 1015.21 1015.13 1015.38 1015.47 1015.67 1015.82 1015.93 1016.04 1016.12 1016.30 1015.89 1015.23 1015.14 1014.79 1014.73 1014.60 1014.65 1014.74 1014.68 1014.25 1014.09 1013.69 1012.93 1012.12 1012.11 1012.03 1014.48
1018.14 1017.35 1016.34 1015.59 1014.83 1014.20 1013.91 1014.19 1014.23 1014.08 1014.45 1015.58 1015.39 1015.73 1016.09 1016.10 1016.32 1016.31 1016.32 1016.41 1016.18 1016.11 1016.45 1016.45 1016.79 1016.85 1016.77 1016.60 1016.20 1015.99 1015.55 1015.81 1015.31 1014.91 1015.17 1015.29 1015.09 1014.94 1014.47 1013.59 1012.83 1013.25 1013.86 1015.07
1018.36 1017.54 1016.52 1015.64 1014.93 1014.41 1014.47 1015.21 1016.19 1016.51 1016.17 1016.22 1016.46 1016.39 1016.80 1016.65 1016.71 1016.85 1016.93 1017.17 1017.24 1017.00 1017.13 1017.28 1017.47 1017.49 1017.18 1016.83 1016.89 1016.45 1016.27 1016.33 1016.74 1016.71 1016.53 1016.20 1015.96 1015.82 1015.57 1014.92 1014.85 1014.42 1015.50 1016.13
1018.61 1017.97 1017.01 1016.05 1015.03 1014.50 1014.87 1016.01 1016.52 1017.12 1017.19 1017.17 1016.87 1017.03 1017.39 1017.19 1017.28 1017.25 1017.45 1017.73 1018.09 1017.77 1018.00 1018.28 1018.21 1018.18 1018.09 1018.02 1017.59 1017.48 1017.66 1017.65 1017.72 1017.81 1017.70 1017.30 1016.88 1016.93 1016.77 1016.56 1016.28 1016.38 1016.91 1017.90
1018.93 1018.54 1017.71 1016.69 1015.56 1014.81 1015.85 1017.13 1017.07 1016.56 1017.46 1017.27 1017.11 1017.53 1017.62 1017.67 1017.71 1018.10 1018.14 1018.22 1018.35 1018.59 1019.09 1019.08 1019.16 1019.24 1019.28 1019.13 1018.84 1018.50 1018.48 1018.50 1018.54 1018.54 1018.80 1018.42 1018.13 1018.09 1017.96 1017.85 1018.13 1018.05 1018.17 1019.80
1019.05 1018.55 1018.16 1017.54 1016.74 1016.35 1016.65 1017.37 1017.20 1016.82 1017.52 1017.23 1017.42 1017.51 1017.63 1017.79 1017.98 1018.15 1018.50 1018.57 1018.73 1019.58 1019.72 1019.63 1019.78 1019.76 1019.83 1019.87 1020.01 1019.80 1019.29 1019.43 1019.65 1019.36 1019.57 1019.29 1019.13 1019.45 1019.49 1019.24 1020.00 1020.17 1020.42 1021.25
1019.35 1018.87 1018.63 1018.09 1017.60 1017.08 1017.09 1017.92 1017.56 1017.15 1017.47 1017.61 1017.67 1017.79 1017.98 1018.26 1018.37 1018.44 1018.59 1019.05 1019.51 1019.78 1019.67 1019.70 1020.11 1020.25 1020.18 1020.41 1020.72 1020.48 1020.24 1019.95 1020.17 1019.96 1019.67 1019.75 1019.81 1020.03 1020.17 1020.13 1021.36 1022.08 1022.03 1022.21
1019.36 1019.13 1018.81 1018.50 1018.08 1017.59 1017.37 1018.09 1018.15 1017.35 1017.28 1017.49 1017.49 1017.80 1018.13 1018.14 1018.37 1018.69 1019.04 1019.67 1019.97 1019.95 1019.97 1020.25 1020.52 1020.89 1021.31 1021.09 1021.01 1021.27 1021.03 1020.81 1020.43 1020.47 1019.65 1019.23 1019.80 1020.70 1021.10 1021.17 1021.45 1022.83 1023.05 1023.05
1019.69 1019.37 1019.16 1018.73 1018.37 1017.98 1017.55 1017.98 1018.37 1017.75 1017.26 1017.32 1017.36 1017.34 1017.75 1018.27 1018.45 1018.55 1019.08 1019.46 1019.82 1020.19 1020.33 1020.99 1021.62 1022.05 1022.39 1022.10 1021.70 1021.65 1021.50 1021.38 1021.11 1020.69 1020.16 1019.86 1020.38 1021.13 1021.55 1021.80 1022.77 1023.19 1023.50 1023.51
1019.91 1019.50 1019.30 1018.96 1018.60 1018.24 1017.73 1018.07 1018.24 1017.95 1017.59 1017.37 1017.21 1017.13 1017.39 1017.91 1017.99 1018.10 1019.09 1019.64 1020.07 1020.36 1020.83 1021.52 1022.15 1022.41 1022.75 1022.78 1022.67 1022.15 1021.72 1021.76 1021.84 1021.74 1021.10 1020.53 1020.73 1021.43 1021.59 1022.05 1022.76 1023.17 1023.45 1023.61
1019.91 1019.69 1019.48 1019.16 1018.78 1018.44 1018.13 1018.02 1018.37 1018.50 1018.03 1017.67 1017.53 1016.96 1016.83 1016.76 1016.91 1017.61 1018.83 1019.15 1019.65 1020.25 1021.02 1022.02 1022.57 1022.61 1022.89 1022.77 1022.33 1022.52 1022.39 1022.09 1021.81 1021.53 1020.66 1020.47 1020.78 1020.92 1021.49 1022.01 1022.38 1022.88 1023.15 1023.33
1019.67 1019.69 1019.51 1019.32 1018.97 1018.61 1018.36 1018.35 1018.58 1018.30 1018.01 1017.61 1017.32 1016.89 1016.91 1016.93 1016.97 1016.97 1017.44 1018.93 1019.42 1020.13 1020.54 1021.25 1022.05 1022.32 1022.51 1022.37 1022.12 1022.11 1022.07 1022.25 1021.97 1021.77 1020.48 1020.62 1020.81 1021.29 1021.71 1022.04 1022.28 1022.72 1022.84 1022.87
1019.53 1019.57 1019.48 1019.39 1019.07 1018.89 1018.65 1018.51 1018.76 1018.61 1018.48 1017.66 1017.22 1017.03 1016.83 1017.01 1016.96 1017.04 1017.27 1017.95 1019.38 1019.95 1020.47 1020.67 1021.07 1021.47 1022.20 1021.97 1022.02 1021.94 1021.69 1022.01 1021.38 1020.89 1020.38 1020.67 1020.63 1020.75 1021.15 1021.71 1022.12 1022.38 1022.46 1022.49
1019.42 1019.45 1019.43 1019.40 1019.13 1018.97 1018.85 1018.67 1018.69 1018.65 1018.62 1017.89 1017.13 1017.00 1017.00 1016.83 1016.79 1017.02 1017.50 1018.00 1018.81 1019.70 1020.26 1020.42 1020.84 1021.24 1021.70 1022.06 1021.96 1021.02 1020.63 1020.32 1020.43 1019.49 1019.12 1019.17 1019.41 1020.03 1020.75 1021.19 1021.52 1021.71 1021.83 1021.85
1019.22 1019.17 1019.26 1019.31 1019.14 1019.00 1018.58 1018.46 1018.57 1018.56 1018.49 1017.97 1017.35 1017.37 1016.98 1016.73 1016.83 1017.07 1017.45 1018.07 1018.65 1019.23 1019.74 1020.53 1020.78 1020.71 1021.09 1021.47 1020.73 1018.89 1019.03 1019.16 1019.09 1018.93 1019.04 1019.26 1019.44 1019.90 1020.38 1020.67 1020.94 1021.11 1021.22 1021.24
1019.01 1018.90 1019.06 1019.12 1019.01 1018.84 1018.49 1018.37 1018.28 1018.58 1018.48 1017.95 1017.50 1017.01 1017.09 1017.17 1017.36 1017.59 1017.79 1018.21 1018.61 1019.04 1019.56 1020.05 1020.07 1020.63 1021.00 1020.44 1019.45 1018.37 1018.28 1018.45 1018.91 1019.13 1019.31 1019.45 1019.53 1019.34 1019.78 1020.21 1020.40 1020.70 1020.76 1020.73
1018.83 1018.77 1018.90 1018.89 1018.79 1018.73 1018.48 1017.96 1018.22 1018.59 1018.23 1017.95 1017.63 1017.05 1017.00 1017.05 1017.11 1017.53 1017.98 1018.16 1018.55 1018.89 1019.09 1019.75 1019.99 1020.58 1020.54 1019.80 1018.21 1017.73 1017.77 1017.96 1018.41 1018.62 1018.81 1018.64 1018.77 1018.93 1019.36 1019.78 1020.01 1020.01 1019.94 1019.93
1018.72 1018.73 1018.72 1018.71 1018.57 1018.29 1018.31 1018.01 1018.11 1018.25 1018.45 1017.88 1017.91 1017.57 1016.89 1016.99 1017.24 1017.50 1017.91 1017.95 1018.20 1018.59 1018.77 1019.34 1019.89 1019.99 1019.60 1018.00 1017.51 1017.54 1017.67 1017.29 1017.21 1017.57 1017.95 1018.42 1018.63 1018.42 1018.55 1018.93 1019.09 1019.22 1019.11 1019.27
1018.66 1018.71 1018.67 1018.23 1018.13 1018.28 1018.31 1018.26 1018.15 1018.23 1018.21 1018.20 1017.93 1017.97 1017.31 1017.27 1017.21 1017.26 1017.59 1017.74 1017.77 1018.17 1019.11 1019.45 1019.48 1018.90 1017.47 1017.20 1017.38 1017.23 1017.21 1017.20 1017.31 1016.95 1017.16 1017.44 1017.56 1017.51 1017.59 1017.83 1018.09 1018.29 1018.45 1018.79
1018.63 1018.37 1018.22 1018.25 1018.24 1018.16 1017.95 1017.73 1017.69 1017.76 1017.71 1017.57 1017.36 1017.41 1016.93 1017.26 1017.16 1017.02 1017.48 1017.42 1017.53 1017.79 1018.45 1018.71 1018.80 1018.13 1016.77 1016.51 1016.54 1016.49 1016.43 1016.76 1016.69 1016.15 1015.86 1016.11 1016.27 1016.47 1016.81 1017.02 1017.38 1017.74 1018.07 1018.33
1018.52 1018.39 1018.43 1018.16 1017.90 1017.67 1017.39 1017.05 1017.12 1017.01 1016.49 1016.57 1016.66 1016.73 1017.04 1017.09 1017.27 1017.20 1017.55 1017.18 1017.51 1017.65 1018.18 1018.18 1017.85 1016.61 1016.09 1016.03 1015.91 1015.85 1015.89 1015.95 1015.86 1015.85 1015.71 1015.74 1015.93 1016.06 1016.23 1016.41 1016.70 1017.08 1017.42 1017.92
1018.41 1018.24 1017.78 1017.43 1017.43 1016.95 1016.35 1015.98 1015.75 1015.51 1015.19 1015.38 1015.89 1016.32 1016.71 1017.33 1017.21 1017.17 1017.25 1017.07 1017.28 1017.72 1017.57 1017.36 1016.54 1015.77 1015.75 1015.56 1015.42 1015.32 1015.32 1015.37 1015.30 1015.16 1015.13 1015.13 1015.30 1015.49 1015.61 1015.72 1016.11 1016.49 1016.86 1017.51
1017.83 1017.39 1017.04 1016.57 1016.07 1015.34 1014.50 1014.34 1014.21 1014.19 1014.32 1014.87 1015.34 1015.87 1016.37 1016.69 1016.81 1016.78 1016.82 1017.00 1017.18 1016.77 1016.66 1016.12 1015.55 1015.35 1015.33 1015.36 1015.30 1015.20 1015.00 1015.04 1015.06 1014.99 1014.90 1014.77 1014.71 1014.87 1014.97 1015.15 1015.45 1015.89 1016.29 1016.92
1017.33 1016.87 1016.01 1015.15 1014.25 1013.85 1013.61 1013.65 1013.80 1013.84 1014.19 1014.65 1015.09 1015.48 1015.79 1016.14 1016.37 1016.49 1016.50 1016.45 1016.01 1015.63 1015.11 1015.06 1014.85 1015.11 1015.21 1015.09 1015.11 1015.09 1015.10 1015.13 1015.13 1015.14 1014.95 1014.87 1014.76 1014.73 1014.71 1014.73 1015.04 1015.31 1015.87 1016.38
1016.87 1016.13 1014.95 1013.97 1013.87 1013.09 1013.03 1013.04 1013.14 1013.31 1013.70 1014.22 1014.57 1014.77 1015.03 1015.34 1015.70 1015.88 1015.39 1015.17 1014.61 1014.35 1014.51 1014.61 1015.02 1015.27 1015.23 1015.20 1015.14 1015.11 1015.19 1015.16 1015.13 1015.07 1015.00 1015.03 1014.81 1015.24 1015.28 1014.37 1015.00 1015.15 1015.37 1015.86
1015.78 1014.61 1013.85 1013.59 1013.17 1012.71 1012.49 1012.50 1012.55 1013.02 1013.24 1013.33 1013.79 1014.04 1014.46 1015.33 1015.49 1014.94 1014.61 1014.10 1013.74 1013.95 1014.25 1014.74 1015.21 1015.33 1015.35 1015.40 1015.39 1015.40 1015.38 1015.43 1015.41 1015.31 1015.29 1015.29 1015.14 1014.95 1014.71 1014.67 1015.01 1015.05 1015.07 1015.50
Thickness
5619 5620 5618 5617 5620 5627 5628 5626 5617 5627 5630 5609 5585 5582 5580 5578 5586 5590 5594 5593 5588 5591 5594 5596 5600 5598 5602 5610 5619 5618 5620 5634 5626 5631 5639 5645 5657 5656 5667 5694 5677 5677 5701 5672
5616 5619 5619 5616 5618 5623 5625 5616 5609 5622 5627 5598 5586 5580 5579 5578 5583 5583 5586 5584 5587 5585 5584 5590 5592 5595 5599 5605 5613 5612 5619 5615 5618 5626 5635 5641 5643 5650 5653 5661 5672 5666 5690 5665
5613 5614 5618 5617 5618 5620 5620 5613 5604 5604 5599 5580 5586 5580 5574 5575 5575 5574 5576 5575 5582 5585 5582 5586 5583 5588 5593 5596 5603 5605 5613 5605 5616 5631 5625 5629 5631 5638 5648 5660 5668 5659 5661 5660
5611 5614 5618 5618 5619 5618 5618 5604 5588 5581 5583 5583 5577 5577 5572 5572 5569 5573 5573 5568 5567 5573 5575 5574 5573 5578 5586 5595 5592 5600 5606 5601 5597 5600 5607 5615 5620 5624 5633 5642 5645 5654 5649 5654
5609 5610 5614 5616 5620 5619 5612 5605 5594 5579 5575 5572 5578 5572 5567 5568 5567 5569 5565 5562 5561 5568 5564 5565 5566 5569 5573 5573 5587 5587 5588 5586 5589 5588 5595 5603 5610 5612 5617 5623 5633 5638 5642 5637
5606 5605 5609 5612 5619 5618 5607 5591 5588 5596 5570 5576 5578 5570 5568 5565 5566 5563 5562 5561 5561 5560 5556 5559 5561 5562 5562 5566 5572 5577 5579 5580 5581 5582 5579 5588 5596 5599 5604 5611 5613 5622 5628 5615
5604 5606 5605 5606 5611 5609 5603 5594 5594 5596 5580 5581 5575 5573 5571 5567 5563 5560 5559 5559 5558 5551 5550 5553 5554 5556 5558 5561 5557 5563 5571 5567 5565 5573 5571 5572 5582 5582 5583 5593 5587 5595 5600 5593
5601 5603 5601 5603 5603 5606 5601 5591 5595 5595 5582 5578 5576 5573 5569 5564 5560 5559 5558 5555 5551 5547 5549 5550 5546 5548 5552 5551 5548 5553 5558 5563 5556 5563 5568 5569 5571 5573 5576 5583 5574 5567 5574 5579
5600 5599 5599 5600 5600 5602 5601 5591 5588 5594 5588 5583 5581 5574 5568 5568 5563 5559 5556 5549 5544 5545 5546 5544 5543 5543 5534 5542 5544 5542 5546 5549 5558 5553 5565 5571 5568 5560 5562 5566 5579 5555 5559 5563
5594 5595 5595 5597 5597 5597 5599 5594 5587 5591 5590 5586 5582 5579 5573 5565 5561 5562 5555 5553 5551 5544 5541 5536 5533 5528 5522 5532 5536 5536 5538 5539 5544 5551 5555 5561 5555 5550 5551 5556 5561 5543 5545 5551
5589 5592 5591 5593 5594 5593 5595 5592 5587 5589 5588 5587 5584 5582 5572 5565 5564 5564 5555 5553 5548 5545 5539 5532 5520 5523 5518 5512 5512 5526 5535 5533 5532 5528 5531 5543 5546 5540 5544 5541 5533 5535 5536 5538
5587 5588 5588 5589 5591 5591 5592 5593 5584 5581 5584 5586 5581 5584 5582 5579 5576 5566 5551 5554 5548 5545 5533 5518 5517 5519 5516 5517 5535 5519 5521 5526 5528 5533 5541 5540 5539 5539 5534 5530 5529 5527 5526 5526
5586 5585 5585 5586 5588 5589 5589 5588 5582 5582 5581 5584 5583 5583 5580 5576 5574 5572 5564 5549 5547 5540 5537 5532 5522 5519 5522 5523 5523 5523 5522 5514 5518 5516 5539 5534 5533 5529 5525 5523 5522 5518 5518 5520
5584 5584 5583 5583 5585 5586 5585 5586 5580 5580 5577 5581 5583 5578 5577 5573 5571 5568 5565 5557 5542 5537 5534 5533 5530 5528 5514 5521 5519 5518 5523 5514 5520 5523 5533 5528 5529 5528 5525 5519 5514 5512 5512 5512
5581 5581 5581 5581 5583 5584 5583 5582 5579 5576 5579 5581 5581 5578 5574 5573 5570 5565 5558 5553 5544 5533 5530 5528 5525 5516 5511 5505 5506 5516 5518 5523 5518 5531 5537 5538 5535 5528 5520 5515 5511 5509 5507 5505
5579 5580 5579 5579 5580 5581 5584 5588 5579 5576 5574 5577 5577 5574 5573 5572 5567 5561 5555 5549 5541 5534 5525 5516 5511 5512 5508 5501 5506 5531 5523 5523 5525 5529 5526 5526 5525 5520 5514 5510 5507 5504 5501 5500
5577 5579 5578 5578 5579 5580 5586 5588 5582 5575 5572 5576 5574 5576 5572 5566 5559 5554 5549 5542 5535 5528 5521 5516 5519 5508 5497 5501 5510 5524 5521 5521 5515 5513 5510 5512 5511 5514 5509 5504 5502 5496 5493 5492
5575 5576 5576 5577 5578 5578 5582 5581 5578 5572 5574 5572 5568 5574 5571 5566 5561 5553 5543 5537 5531 5523 5523 5514 5508 5495 5489 5491 5514 5517 5518 5517 5511 5507 5507 5512 5510 5508 5502 5496 5493 5489 5488 5487
5572 5573 5574 5575 5577 5581 5579 5578 5575 5571 5569 5570 5564 5562 5572 5563 5555 5549 5541 5537 5532 5524 5522 5513 5501 5495 5492 5507 5514 5511 5510 5513 5515 5510 5505 5501 5499 5503 5500 5493 5489 5484 5483 5479
5569 5570 5575 5582 5578 5574 5573 5573 5571 5568 5564 5561 5560 5555 5560 5559 5553 5550 5543 5535 5533 5527 5512 5502 5499 5498 5515 5513 5500 5502 5505 5504 5502 5505 5503 5500 5498 5500 5497 5492 5488 5484 5479 5473
5567 5575 5578 5572 5571 5573 5573 5573 5572 5566 5564 5562 5560 5557 5563 5552 5553 5550 5538 5533 5529 5522 5516 5508 5497 5496 5515 5512 5509 5506 5507 5502 5501 5507 5510 5506 5503 5500 5494 5490 5484 5480 5474 5467
5565 5568 5565 5568 5572 5573 5574 5576 5570 5566 5570 5567 5567 5563 5555 5552 5544 5542 5532 5534 5522 5520 5509 5504 5486 5512 5515 5509 5509 5507 5505 5502 5501 5499 5499 5497 5494 5492 5489 5485 5480 5476 5471 5461
5560 5566 5572 5574 5572 5569 5575 5572 5573 5575 5580 5575 5566 5564 5555 5542 5540 5535 5530 5529 5522 5510 5507 5489 5503 5515 5509 5507 5504 5503 5501 5499 5497 5497 5496 5493 5488 5484 5482 5480 5475 5471 5465 5455
5566 5571 5564 5575 5574 5578 5588 5586 5589 5586 5582 5573 5567 5559 5553 5543 5539 5532 5529 5521 5512 5512 5504 5501 5514 5510 5506 5501 5499 5496 5496 5493 5491 5488 5486 5485 5483 5479 5476 5474 5470 5465 5460 5451
5566 5568 5564 5578 5590 5591 5591 5588 5584 5582 5575 5569 5562 5556 5550 5543 5535 5529 5523 5518 5512 5515 5516 5515 5514 5506 5500 5498 5495 5491 5487 5484 5480 5476 5475 5473 5470 5469 5467 5466 5463 5459 5453 5448
5563 5567 5577 5587 5584 5592 5590 5589 5587 5581 5575 5567 5563 5558 5553 5547 5539 5529 5528 5524 5522 5524 5515 5513 5503 5498 5495 5491 5488 5484 5479 5474 5470 5465 5460 5455 5453 5447 5447 5456 5451 5450 5448 5443
5568 5576 5583 5584 5585 5589 5592 5590 5589 5579 5577 5572 5564 5557 5553 5539 5531 5530 5530 5527 5530 5522 5514 5504 5495 5492 5488 5482 5478 5472 5467 5461 5455 5450 5443 5437 5435 5436 5438 5440 5438 5440 5441 5439